| time (UTC) | temp F | wind direction | speed MPH | gust MPH | rain 1hr in | rain 24hr in | rain mn in | humidity % | barometer mb |
| 20260831224557 | 87 | 208 | 4.0 | 9.0 | 0.00 | 0.00 | 0.00 | 66 | 1016.9 |
| 20260831223054 | 87 | 213 | 4.0 | 10.0 | 0.00 | 0.00 | 0.00 | 66 | 1016.8 |
| 20260831221601 | 87 | 210 | 4.0 | 11.0 | 0.00 | 0.00 | 0.00 | 64 | 1016.9 |
| 20260831220053 | 87 | 226 | 6.0 | 14.0 | 0.00 | 0.00 | 0.00 | 63 | 1016.9 |
| 20260831214557 | 88 | 222 | 7.0 | 15.0 | 0.00 | 0.00 | 0.00 | 61 | 1017.0 |
| 20260831213053 | 88 | 193 | 8.0 | 14.0 | 0.00 | 0.00 | 0.00 | 59 | 1017.1 |
| 20260831211549 | 89 | 206 | 6.0 | 12.0 | 0.00 | 0.00 | 0.00 | 62 | 1017.1 |
| 20260831210048 | 89 | 221 | 5.0 | 12.0 | 0.00 | 0.00 | 0.00 | 58 | 1017.2 |
| 20260831204553 | 89 | 186 | 7.0 | 12.0 | 0.00 | 0.00 | 0.00 | 58 | 1017.4 |
| 20260831203057 | 90 | 230 | 7.0 | 15.0 | 0.00 | 0.00 | 0.00 | 61 | 1017.7 |
| 20260831201541 | 89 | 202 | 7.0 | 14.0 | 0.00 | 0.00 | 0.00 | 60 | 1017.9 |
| 20260831200041 | 90 | 209 | 8.0 | 13.0 | 0.00 | 0.00 | 0.00 | 60 | 1018.2 |
| 20260831194539 | 90 | 209 | 7.0 | 11.0 | 0.00 | 0.00 | 0.00 | 61 | 1018.5 |
| 20260831193038 | 89 | 251 | 5.0 | 11.0 | 0.00 | 0.00 | 0.00 | 60 | 1018.7 |
| 20260831191543 | 89 | 228 | 6.0 | 10.0 | 0.00 | 0.00 | 0.00 | 61 | 1018.8 |
| 20260831190034 | 89 | 264 | 5.0 | 15.0 | 0.00 | 0.00 | 0.00 | 60 | 1018.9 |
| 20260831184532 | 88 | 219 | 5.0 | 12.0 | 0.00 | 0.00 | 0.00 | 64 | 1019.1 |
| 20260831183030 | 88 | 272 | 4.0 | 8.0 | 0.00 | 0.00 | 0.00 | 65 | 1019.1 |
| 20260831181528 | 87 | 202 | 4.0 | 9.0 | 0.00 | 0.00 | 0.00 | 69 | 1019.3 |
| 20260831180027 | 86 | 250 | 4.0 | 9.0 | 0.00 | 0.00 | 0.00 | 70 | 1019.3 |
| 20260831174523 | 85 | 253 | 3.0 | 11.0 | 0.00 | 0.00 | 0.00 | 71 | 1019.5 |
| 20260831173021 | 84 | 265 | 3.0 | 9.0 | 0.00 | 0.00 | 0.00 | 71 | 1019.6 |
| 20260831171522 | 85 | 276 | 5.0 | 12.0 | 0.00 | 0.00 | 0.00 | 71 | 1019.7 |
| 20260831170025 | 85 | 253 | 3.0 | 11.0 | 0.00 | 0.00 | 0.00 | 71 | 1019.7 |
| 20260831164528 | 85 | 266 | 4.0 | 9.0 | 0.00 | 0.00 | 0.00 | 73 | 1019.7 |
| 20260831163019 | 84 | 270 | 3.0 | 8.0 | 0.00 | 0.00 | 0.00 | 73 | 1019.7 |
| 20260831161521 | 85 | 264 | 5.0 | 10.0 | 0.00 | 0.00 | 0.00 | 74 | 1019.7 |
| 20260831160013 | 83 | 251 | 3.0 | 9.0 | 0.00 | 0.00 | 0.00 | 80 | 1019.7 |
| 20260831154510 | 81 | 218 | 4.0 | 11.0 | 0.00 | 0.00 | 0.00 | 80 | 1019.7 |
| 20260831153010 | 81 | 229 | 3.0 | 8.0 | 0.00 | 0.00 | 0.00 | 81 | 1019.7 |
| 20260831151507 | 81 | 268 | 4.0 | 8.0 | 0.00 | 0.00 | 0.00 | 80 | 1019.6 |
| 20260831150003 | 79 | 201 | 3.0 | 7.0 | 0.00 | 0.00 | 0.00 | 84 | 1019.6 |
| 20260831144605 | 79 | 213 | 3.0 | 8.0 | 0.00 | 0.00 | 0.00 | 83 | 1019.5 |
| 20260831143104 | 78 | 237 | 2.0 | 7.0 | 0.00 | 0.00 | 0.00 | 83 | 1019.4 |
| 20260831141600 | 78 | 224 | 3.0 | 7.0 | 0.00 | 0.00 | 0.00 | 83 | 1019.3 |
| 20260831140057 | 78 | 220 | 3.0 | 8.0 | 0.00 | 0.00 | 0.00 | 84 | 1019.3 |
| 20260831134554 | 76 | 221 | 4.0 | 6.0 | 0.00 | 0.00 | 0.00 | 87 | 1019.2 |
| 20260831133045 | 74 | 183 | 2.0 | 4.0 | 0.00 | 0.00 | 0.00 | 90 | 1019.3 |
| 20260831131541 | 73 | 177 | 2.0 | 6.0 | 0.00 | 0.00 | 0.00 | 90 | 1019.3 |
| 20260831130037 | 73 | 174 | 2.0 | 6.0 | 0.00 | 0.00 | 0.00 | 91 | 1019.3 |
| 20260831124550 | 72 | 170 | 2.0 | 5.0 | 0.00 | 0.00 | 0.00 | 94 | 1019.1 |
| 20260831123030 | 70 | 152 | 1.0 | 2.0 | 0.00 | 0.00 | 0.00 | 94 | 1019.1 |
| 20260831121528 | 69 | 152 | 1.0 | 2.0 | 0.00 | 0.00 | 0.00 | 95 | 1019.0 |
| 20260831120027 | 69 | 152 | 0.0 | 2.0 | 0.00 | 0.00 | 0.00 | 95 | 1019.0 |
| 20260831114536 | 68 | 152 | 1.0 | 3.0 | 0.00 | 0.00 | 0.00 | 95 | 1018.9 |
| 20260831113021 | 68 | 151 | 1.0 | 2.0 | 0.00 | 0.00 | 0.00 | 95 | 1018.9 |
| 20260831111519 | 68 | 151 | 1.0 | 2.0 | 0.00 | 0.00 | 0.00 | 95 | 1018.9 |
| 20260831110020 | 68 | 151 | 1.0 | 2.0 | 0.00 | 0.00 | 0.00 | 94 | 1018.7 |
| 20260831104528 | 69 | 151 | 0.0 | 2.0 | 0.00 | 0.01 | 0.00 | 93 | 1018.7 |
| 20260831103021 | 69 | 162 | 1.0 | 3.0 | 0.00 | 0.01 | 0.00 | 93 | 1018.4 |
| 20260831101517 | 69 | 232 | 2.0 | 3.0 | 0.00 | 0.01 | 0.00 | 95 | 1018.3 |
| 20260831100016 | 68 | 233 | 1.0 | 2.0 | 0.00 | 0.01 | 0.00 | 95 | 1018.3 |
| 20260831094516 | 68 | 234 | 0.0 | 2.0 | 0.00 | 0.01 | 0.00 | 96 | 1018.2 |
| 20260831093021 | 68 | 130 | 0.0 | 0.0 | 0.00 | 0.01 | 0.00 | 95 | 1018.2 |
| 20260831091513 | 68 | 130 | 0.0 | 1.0 | 0.00 | 0.01 | 0.00 | 96 | 1018.3 |
| 20260831090014 | 68 | 124 | 0.0 | 2.0 | 0.00 | 0.01 | 0.00 | 96 | 1018.3 |
| 20260831084513 | 68 | 109 | 0.0 | 0.0 | 0.00 | 0.01 | 0.00 | 96 | 1018.4 |
| 20260831083022 | 68 | 109 | 0.0 | 0.0 | 0.00 | 0.01 | 0.00 | 95 | 1018.4 |
| 20260831081512 | 68 | 109 | 0.0 | 2.0 | 0.00 | 0.01 | 0.00 | 95 | 1018.4 |
| 20260831080014 | 68 | 109 | 0.0 | 1.0 | 0.00 | 0.01 | 0.00 | 95 | 1018.2 |
| 20260831074510 | 68 | 162 | 0.0 | 1.0 | 0.00 | 0.01 | 0.00 | 94 | 1018.2 |
| 20260831073008 | 69 | 168 | 0.0 | 0.0 | 0.00 | 0.01 | 0.00 | 94 | 1018.1 |
| 20260831071522 | 69 | 169 | 0.0 | 1.0 | 0.00 | 0.01 | 0.00 | 93 | 1018.2 |
| 20260831070011 | 70 | 127 | 0.0 | 2.0 | 0.00 | 0.01 | 0.00 | 92 | 1018.2 |
| 20260831064505 | 70 | 128 | 2.0 | 5.0 | 0.00 | 0.01 | 0.00 | 93 | 1018.0 |
| 20260831063003 | 70 | 121 | 3.0 | 4.0 | 0.00 | 0.01 | 0.00 | 94 | 1018.2 |
| 20260831061501 | 70 | 118 | 0.0 | 2.0 | 0.00 | 0.01 | 0.00 | 93 | 1018.5 |
| 20260831060104 | 70 | 131 | 2.0 | 4.0 | 0.00 | 0.01 | 0.00 | 93 | 1018.5 |
| 20260831054559 | 70 | 125 | 0.0 | 2.0 | 0.00 | 0.01 | 0.00 | 92 | 1018.7 |
| 20260831053059 | 71 | 145 | 2.0 | 4.0 | 0.00 | 0.01 | 0.00 | 92 | 1018.6 |
| 20260831051556 | 71 | 144 | 2.0 | 4.0 | 0.00 | 0.01 | 0.00 | 92 | 1018.8 |
| 20260831050111 | 71 | 170 | 0.0 | 2.0 | 0.00 | 0.01 | 0.00 | 91 | 1018.9 |
| 20260831044614 | 71 | 141 | 3.0 | 7.0 | 0.00 | 0.01 | 0.00 | 91 | 1018.6 |
| 20260831043050 | 71 | 148 | 4.0 | 9.0 | 0.00 | 0.01 | 0.00 | 91 | 1018.4 |
| 20260831041602 | 71 | 150 | 6.0 | 8.0 | 0.00 | 0.01 | 0.00 | 91 | 1018.5 |
| 20260831040046 | 71 | 144 | 3.0 | 7.0 | 0.00 | 0.01 | 0.00 | 93 | 1018.4 |
| 20260831034544 | 71 | 163 | 3.0 | 6.0 | 0.00 | 0.01 | 0.01 | 94 | 1018.5 |
| 20260831033044 | 70 | 193 | 2.0 | 4.0 | 0.00 | 0.01 | 0.01 | 95 | 1018.7 |
| 20260831031547 | 70 | 193 | 1.0 | 4.0 | 0.00 | 0.01 | 0.01 | 96 | 1018.8 |
| 20260831030043 | 69 | 202 | 0.0 | 3.0 | 0.00 | 0.01 | 0.01 | 96 | 1018.8 |
| 20260831024607 | 69 | 202 | 0.0 | 0.0 | 0.00 | 0.01 | 0.01 | 96 | 1018.8 |
| 20260831023042 | 69 | 202 | 0.0 | 0.0 | 0.00 | 0.01 | 0.01 | 95 | 1018.9 |
| 20260831021543 | 69 | 202 | 0.0 | 0.0 | 0.00 | 0.01 | 0.01 | 95 | 1018.8 |
| 20260831014558 | 69 | 202 | 0.0 | 1.0 | 0.00 | 0.01 | 0.01 | 94 | 1018.6 |
| 20260831013040 | 70 | 202 | 0.0 | 2.0 | 0.00 | 0.01 | 0.01 | 94 | 1018.5 |
| 20260831011539 | 70 | 205 | 0.0 | 1.0 | 0.00 | 0.01 | 0.01 | 94 | 1018.4 |
| 20260831010046 | 71 | 205 | 0.0 | 0.0 | 0.00 | 0.01 | 0.01 | 93 | 1018.3 |
| 20260831004539 | 72 | 205 | 0.0 | 2.0 | 0.00 | 0.01 | 0.01 | 93 | 1018.3 |
| 20260831003039 | 73 | 205 | 0.0 | 0.0 | 0.00 | 0.01 | 0.01 | 91 | 1018.4 |
| 20260831001547 | 74 | 205 | 0.0 | 0.0 | 0.00 | 0.01 | 0.01 | 91 | 1018.4 |
| 20260831000038 | 75 | 205 | 0.0 | 0.0 | 0.00 | 0.01 | 0.01 | 90 | 1018.4 |
| 20260830234603 | 77 | 205 | 0.0 | 0.0 | 0.00 | 0.01 | 0.01 | 87 | 1018.2 |
| 20260830233037 | 78 | 205 | 0.0 | 0.0 | 0.00 | 0.01 | 0.01 | 86 | 1018.3 |
| 20260830231537 | 79 | 205 | 0.0 | 2.0 | 0.00 | 0.01 | 0.01 | 84 | 1018.5 |
| 20260830230039 | 81 | 205 | 1.0 | 2.0 | 0.00 | 0.01 | 0.01 | 78 | 1018.3 |